Location: Bari
(41.1330°N, 16.8500°E)
Time: 02:29:57
(UTC+02:00)

ISS - Pass Details

Date: 14 May 2021
Orbit: 417 x 422 km, 51.6° (Epoch: 14 June)

Event Time Altitude Azimuth Distance (km) Brightness Sun altitude
Rises 22:48:26 0° 254° (WSW) 2,356 0.2 -23.8°
Reaches altitude 10° 22:50:37 10° 263° (W) 1,496 -0.7 -24.0°
Maximum altitude 22:53:46 36° 332° (NNW) 683 -2.2 -24.3°
Enters shadow 22:55:16 23° 23° (NNE) 938 -1.7 -24.5°
Exits shadow 22:57:17 - 44° (NE) 1,645 -0.6 -24.7°
Sets 22:59:08 0° 51° (NE) 2,372 0.2 -24.8°
